User: anonymous   Login
Location: Unspecified
(0.0000°N, 0.0000°E)
Time: 02:02:30
(UTC+00:00)
Language:

OBJECT CD - Orbit

View from above orbital plane
View from above orbital plane
View from above satellite
View from above satellite

Ground track
Ground track

The orbit is defined by the following mean orbital elements,

1 66741U          26145.14290622 +.00000000 +00000-0 +35941-3 0 00006
2 66741  97.4250 219.2167 0007138  78.1924 282.0111 15.20167598    00
Epoch (UTC): 25 May 2026 03:25:47
Eccentricity: 0.0007138
inclination: 97.4250°
perigee height: 500 km
apogee height: 510 km
right ascension of ascending node: 219.2167°
argument of perigee: 78.1924°
revolutions per day: 15.20167598
mean anomaly at epoch: 282.0111°

The dashed part of the orbit path shows where the satellite is in the earth's shadow,  

DLR